Time,TemperatureF,DewpointF,PressureIn,WindDirection,WindDirectionDegrees,WindSpeedMPH,WindSpeedGustMPH,Humidity,HourlyPrecipIn,Conditions,Clouds,dailyrainin,SolarRadiationWatts/m^2,SoftwareType,DateUTC
2013-11-30 00:12:00,23.0,16.0,-100.00,SW,217,5.0,15.0,75,0.00,,,0.00,0.000000,,2013-11-30 06:12:00,
2013-11-30 00:22:00,23.0,16.0,-100.00,SW,217,5.0,15.0,75,0.00,,,0.00,0.000000,,2013-11-30 06:22:00,
2013-11-30 00:32:00,23.0,16.0,-100.00,SW,217,5.0,15.0,75,0.00,,,0.00,0.000000,,2013-11-30 06:32:00,
2013-11-30 01:12:00,23.0,16.0,-100.00,SSW,213,5.0,13.0,74,0.00,,,0.00,0.000000,,2013-11-30 07:12:00,
2013-11-30 01:21:00,23.0,16.0,-100.00,SSW,213,5.0,13.0,74,0.00,,,0.00,0.000000,,2013-11-30 07:21:00,
2013-11-30 01:32:00,23.0,16.0,-100.00,SSW,213,5.0,13.0,74,0.00,,,0.00,0.000000,,2013-11-30 07:32:00,
2013-11-30 02:11:00,24.0,17.0,-100.00,SW,214,5.0,16.0,74,0.00,,,0.00,0.000000,,2013-11-30 08:11:00,
2013-11-30 02:22:00,24.0,17.0,-100.00,SW,214,5.0,16.0,74,0.00,,,0.00,0.000000,,2013-11-30 08:22:00,
2013-11-30 02:32:00,24.0,17.0,-100.00,SW,214,5.0,16.0,74,0.00,,,0.00,0.000000,,2013-11-30 08:32:00,
2013-11-30 03:11:00,24.0,17.0,-100.00,SSW,211,5.0,12.0,74,0.00,,,0.00,0.000000,,2013-11-30 09:11:00,
2013-11-30 03:21:00,24.0,17.0,-100.00,SSW,211,5.0,12.0,74,0.00,,,0.00,0.000000,,2013-11-30 09:21:00,
2013-11-30 03:32:00,24.0,17.0,-100.00,SSW,211,5.0,12.0,74,0.00,,,0.00,0.000000,,2013-11-30 09:32:00,
2013-11-30 04:12:00,24.0,17.0,-100.00,SSW,210,5.0,12.0,74,0.00,,,0.00,0.000000,,2013-11-30 10:12:00,
2013-11-30 04:23:00,24.0,17.0,-100.00,SSW,210,5.0,12.0,74,0.00,,,0.00,0.000000,,2013-11-30 10:23:00,
2013-11-30 04:33:00,24.0,17.0,-100.00,SSW,210,5.0,12.0,74,0.00,,,0.00,0.000000,,2013-11-30 10:33:00,
2013-11-30 05:12:00,25.0,18.0,-100.00,SW,224,5.0,13.0,75,0.00,,,0.00,0.000000,,2013-11-30 11:12:00,
2013-11-30 05:22:00,25.0,18.0,-100.00,SW,224,5.0,13.0,75,0.00,,,0.00,0.000000,,2013-11-30 11:22:00,
2013-11-30 05:33:00,25.0,18.0,-100.00,SW,224,5.0,13.0,75,0.00,,,0.00,0.000000,,2013-11-30 11:33:00,
2013-11-30 06:11:00,25.0,18.0,-100.00,South,188,3.0,11.0,75,0.00,,,0.00,0.000000,,2013-11-30 12:11:00,
2013-11-30 06:22:00,25.0,18.0,-100.00,South,188,3.0,11.0,75,0.00,,,0.00,0.000000,,2013-11-30 12:22:00,
2013-11-30 06:32:00,25.0,18.0,-100.00,South,188,3.0,11.0,75,0.00,,,0.00,0.000000,,2013-11-30 12:32:00,
2013-11-30 07:11:00,24.0,18.0,-100.00,SW,227,3.0,7.0,76,0.00,,,0.00,0.000000,,2013-11-30 13:11:00,
2013-11-30 07:21:00,24.0,18.0,-100.00,SW,227,3.0,7.0,76,0.00,,,0.00,0.000000,,2013-11-30 13:21:00,
2013-11-30 07:32:00,24.0,18.0,-100.00,SW,227,3.0,7.0,76,0.00,,,0.00,0.000000,,2013-11-30 13:32:00,
2013-11-30 08:12:00,24.0,18.0,-100.00,SW,232,2.0,7.0,79,0.00,,,0.00,2.000000,,2013-11-30 14:12:00,
2013-11-30 08:22:00,24.0,18.0,-100.00,SW,232,2.0,7.0,79,0.00,,,0.00,2.000000,,2013-11-30 14:22:00,
2013-11-30 08:32:00,24.0,18.0,-100.00,SW,232,2.0,7.0,79,0.00,,,0.00,2.000000,,2013-11-30 14:32:00,
2013-11-30 09:11:00,25.0,19.0,-100.00,SW,228,3.0,7.0,77,0.00,,,0.00,31.000000,,2013-11-30 15:11:00,
2013-11-30 09:21:00,25.0,19.0,-100.00,SW,228,3.0,7.0,77,0.00,,,0.00,31.000000,,2013-11-30 15:21:00,
2013-11-30 09:33:00,25.0,19.0,-100.00,SW,228,3.0,7.0,77,0.00,,,0.00,31.000000,,2013-11-30 15:33:00,
2013-11-30 10:13:00,27.0,20.0,-100.00,SW,214,3.0,6.0,74,0.00,,,0.00,59.000000,,2013-11-30 16:13:00,
2013-11-30 10:23:00,27.0,20.0,-100.00,SW,214,3.0,6.0,74,0.00,,,0.00,59.000000,,2013-11-30 16:23:00,
2013-11-30 10:33:00,27.0,20.0,-100.00,SW,214,3.0,6.0,74,0.00,,,0.00,59.000000,,2013-11-30 16:33:00,
2013-11-30 11:11:00,30.0,21.0,-100.00,WSW,237,2.0,5.0,69,0.00,,,0.00,110.000000,,2013-11-30 17:11:00,
2013-11-30 11:22:00,30.0,21.0,-100.00,WSW,237,2.0,5.0,69,0.00,,,0.00,110.000000,,2013-11-30 17:22:00,
2013-11-30 11:33:00,30.0,21.0,-100.00,WSW,237,2.0,5.0,69,0.00,,,0.00,110.000000,,2013-11-30 17:33:00,
2013-11-30 12:12:00,32.0,22.0,-100.00,WSW,238,3.0,6.0,66,0.00,,,0.00,174.000000,,2013-11-30 18:12:00,
2013-11-30 12:21:00,32.0,22.0,-100.00,WSW,238,3.0,6.0,66,0.00,,,0.00,174.000000,,2013-11-30 18:21:00,
2013-11-30 12:33:00,32.0,22.0,-100.00,WSW,238,3.0,6.0,66,0.00,,,0.00,174.000000,,2013-11-30 18:33:00,
2013-11-30 13:11:00,34.0,23.0,-100.00,NW,324,3.0,7.0,64,0.02,,,0.02,188.000000,,2013-11-30 19:11:00,
2013-11-30 13:21:00,34.0,23.0,-100.00,NW,324,3.0,7.0,64,0.02,,,0.02,188.000000,,2013-11-30 19:21:00,
2013-11-30 13:32:00,34.0,23.0,-100.00,NW,324,3.0,7.0,64,0.02,,,0.02,188.000000,,2013-11-30 19:32:00,
2013-11-30 14:11:00,34.0,23.0,-100.00,North,355,2.0,5.0,64,0.00,,,0.02,167.000000,,2013-11-30 20:11:00,
2013-11-30 14:22:00,34.0,23.0,-100.00,North,355,2.0,5.0,64,0.00,,,0.02,167.000000,,2013-11-30 20:22:00,
2013-11-30 14:32:00,34.0,23.0,-100.00,North,355,2.0,5.0,64,0.00,,,0.02,167.000000,,2013-11-30 20:32:00,
2013-11-30 15:11:00,34.0,23.0,-100.00,North,354,3.0,6.0,64,0.02,,,0.04,139.000000,,2013-11-30 21:11:00,
2013-11-30 15:22:00,34.0,23.0,-100.00,North,354,3.0,6.0,64,0.02,,,0.04,139.000000,,2013-11-30 21:22:00,
2013-11-30 15:33:00,34.0,23.0,-100.00,North,354,3.0,6.0,64,0.02,,,0.04,139.000000,,2013-11-30 21:33:00,
2013-11-30 16:12:00,31.0,22.0,-100.00,NNE,27,4.0,6.0,70,0.00,,,0.04,61.000000,,2013-11-30 22:12:00,
2013-11-30 16:23:00,31.0,22.0,-100.00,NNE,27,4.0,6.0,70,0.00,,,0.04,61.000000,,2013-11-30 22:23:00,
2013-11-30 16:33:00,31.0,22.0,-100.00,NNE,27,4.0,6.0,70,0.00,,,0.04,61.000000,,2013-11-30 22:33:00,
2013-11-30 17:12:00,30.0,23.0,-100.00,NE,38,3.0,6.0,75,0.00,,,0.04,6.000000,,2013-11-30 23:12:00,
2013-11-30 17:22:00,30.0,23.0,-100.00,NE,38,3.0,6.0,75,0.00,,,0.04,6.000000,,2013-11-30 23:22:00,
2013-11-30 17:33:00,30.0,23.0,-100.00,NE,38,3.0,6.0,75,0.00,,,0.04,6.000000,,2013-11-30 23:33:00,
2013-11-30 18:11:00,29.0,22.0,-100.00,NNE,25,1.0,4.0,76,0.00,,,0.04,0.000000,,2013-12-01 00:11:00,
2013-11-30 18:21:00,29.0,22.0,-100.00,NNE,25,1.0,4.0,76,0.00,,,0.04,0.000000,,2013-12-01 00:21:00,
2013-11-30 18:32:00,29.0,22.0,-100.00,NNE,25,1.0,4.0,76,0.00,,,0.04,0.000000,,2013-12-01 00:32:00,
2013-11-30 19:12:00,29.0,23.0,-100.00,North,5,0.0,3.0,78,0.00,,,0.04,0.000000,,2013-12-01 01:12:00,
2013-11-30 19:21:00,29.0,23.0,-100.00,North,5,0.0,3.0,78,0.00,,,0.04,0.000000,,2013-12-01 01:21:00,
2013-11-30 19:32:00,29.0,23.0,-100.00,North,5,0.0,3.0,78,0.00,,,0.04,0.000000,,2013-12-01 01:32:00,
2013-11-30 20:11:00,29.0,23.0,-100.00,NNE,24,1.0,2.0,79,0.00,,,0.04,0.000000,,2013-12-01 02:11:00,
2013-11-30 20:21:00,29.0,23.0,-100.00,NNE,24,1.0,2.0,79,0.00,,,0.04,0.000000,,2013-12-01 02:21:00,
2013-11-30 20:32:00,29.0,23.0,-100.00,NNE,24,1.0,2.0,79,0.00,,,0.04,0.000000,,2013-12-01 02:32:00,
2013-11-30 21:11:00,28.0,23.0,-100.00,NNW,337,0.0,0.0,82,0.00,,,0.04,0.000000,,2013-12-01 03:11:00,
2013-11-30 21:21:00,28.0,23.0,-100.00,NNW,337,0.0,0.0,82,0.00,,,0.04,0.000000,,2013-12-01 03:21:00,
2013-11-30 21:33:00,28.0,23.0,-100.00,NNW,337,0.0,0.0,82,0.00,,,0.04,0.000000,,2013-12-01 03:33:00,
2013-11-30 22:03:00,-999.0,-99.9,-100.00,WSW,237,0.0,0.0,-999,0.00,,,0.04,0.000000,,2013-12-01 04:03:00,
2013-11-30 22:13:00,27.0,23.0,-100.00,WSW,237,0.0,0.0,85,0.00,,,0.04,0.000000,,2013-12-01 04:13:00,
2013-11-30 22:22:00,27.0,23.0,-100.00,WSW,237,0.0,0.0,85,0.00,,,0.04,0.000000,,2013-12-01 04:22:00,
2013-11-30 22:33:00,27.0,23.0,-100.00,WSW,237,0.0,0.0,85,0.00,,,0.04,0.000000,,2013-12-01 04:33:00,
2013-11-30 23:12:00,27.0,23.0,-100.00,NNW,330,0.0,2.0,86,0.00,,,0.04,0.000000,,2013-12-01 05:12:00,
2013-11-30 23:22:00,27.0,23.0,-100.00,NNW,330,0.0,2.0,86,0.00,,,0.04,0.000000,,2013-12-01 05:22:00,
2013-11-30 23:33:00,27.0,23.0,-100.00,NNW,330,0.0,2.0,86,0.00,,,0.04,0.000000,,2013-12-01 05:33:00,